User: anonymous   Login
Location: Writing-on-Stone Provincial Park
(49.0825°N, 111.6163°W)
Time: 07:18:12
(UTC-07:00)
Language:

BREEZE-M DEB (TANK) - Orbit

View from above orbital plane
View from above orbital plane
View from above satellite
View from above satellite

Ground track
Ground track

The orbit data is extracted from the following two-line orbital elements,

1 29649U 06056B   16340.54559405  .00000241  00000-0  84847-4 0  9990
2 29649  49.5202  15.2477 5376976  40.6145 349.1463  4.99062576178096
Epoch (UTC): 05 December 2016 13:05:39
Eccentricity: 0.5376976
inclination: 49.5202°
perigee height: 309 km
apogee height: 15863 km
right ascension of ascending node: 15.2477°
argument of perigee: 40.6145°
revolutions per day: 4.99062576
mean anomaly at epoch: 349.1463°
orbit number at epoch: 17809

The dashed part of the orbit path shows where the satellite is in the earth's shadow,  

DLR